SCP
4 4 4 4 3 3 2 2 1 1 1 1 1 1 1 1 1 1 1 1 1 1 1 1 1 1 1 1 0 0 0 0 0 0 0 0 1 1 1 1 1 1 1
4 3 3 3 3 2 2 1 1 1 1 1 1 1 1 1 1 1 1 1 1 1 1 1 1 1 1 0 0 0 0 0 0 0 0 0 0 1 1 1 1 2 2
3 3 3 2 2 1 1 1 1 1 1 1 1 1 1 1 1 1 1 1 1 1 1 1 1 1 0 0 0 0 0 0 0 0 0 0 0 0 1 1 1 1 1
3 2 2 2 1 1 1 1 2 2 2 1 1 1 1 1 1 1 2 2 1 1 1 1 1 0 0 0 0 0 0 0 0 0 0 0 0 0 0 0 1 1 1
1 1 1 1 1 1 1 2 2 2 2 2 2 1 1 1 1 2 2 2 1 1 1 1 0 0 0 0 0 0 0 0 0 0 0 0 0 0 0 0 0 1 1
1 1 1 1 1 1 1 2 2 3 2 2 2 2 2 1 1 1 1 1 1 1 0 0 0 0 0 0 0 0 0 0 0 0 0 0 0 0 0 0 0 0 0
1 1 1 1 1 1 1 2 3 3 3 2 2 2 2 1 1 1 1 0 0 0 0 0 0 0 0 0 0 0 0 0 0 0 0 0 0 0 0 0 0 0 0
1 1 1 1 1 1 2 2 3 4 3 2 2 2 1 1 1 0 0 0 0 0 0 0 0 0 0 0 0 0 0 0 0 0 0 0 0 0 0 0 0 0 0
1 1 1 1 1 1 2 2 3 3 3 2 2 1 1 1 0 0 0 0 0 0 0 0 0 0 0 0 0 0 0 0 0 0 0 0 0 0 0 0 0 0 0
0 1 1 1 1 1 2 2 3 2 2 2 1 1 1 1 1 0 0 0 0 0 0 0 1 1 1 0 0 0 0 0 0 0 0 0 0 0 0 0 0 0 0
0 0 1 1 1 1 2 2 2 2 1 1 1 1 0 1 1 0 0 0 1 1 1 1 1 1 1 1 1 0 0 0 0 0 0 0 0 0 0 0 0 0 0
0 1 1 1 1 1 1 1 1 1 1 1 1 1 0 1 1 1 1 1 1 1 1 1 1 1 1 1 0 0 0 0 0 0 0 0 0 0 0 0 0 0 0
1 1 1 2 2 2 2 1 1 1 1 0 0 1 1 1 1 1 1 1 1 1 1 1 1 1 1 1 0 0 0 0 0 0 0 0 1 1 1 1 0 0 0
1 1 2 3 3 3 2 2 1 0 0 0 0 1 1 1 1 1 1 1 1 1 1 1 1 1 1 1 0 0 1 0 0 0 1 1 1 1 1 0 0 0 0
1 2 3 4 4 4 3 2 1 1 0 0 0 1 1 1 1 1 1 1 1 1 1 1 1 1 0 0 0 0 0 0 0 1 1 0 0 0 0 0 0 0 0
1 2 3 4 5 4 3 2 2 1 1 1 1 1 1 1 1 1 1 1 1 1 1 1 1 1 0 0 0 0 0 0 0 1 0 0 0 0 0 0 0 0 0
1 2 3 4 5 4 3 3 2 2 2 2 1 1 1 1 1 1 1 1 2 2 1 1 1 1 1 0 0 0 0 0 0 0 0 0 0 0 0 0 0 0 0
1 1 2 4 4 4 3 3 3 3 2 2 2 2 2 2 2 2 2 2 3 2 2 2 1 2 1 1 0 0 0 0 0 0 0 0 0 0 0 0 0 0 0
1 1 2 3 4 4 4 4 4 3 3 3 3 3 3 3 3 3 3 3 3 3 2 2 2 2 2 1 0 0 0 0 0 0 0 0 0 0 0 0 0 0 0
2 2 2 3 4 5 5 5 5 5 4 4 4 4 4 5 5 4 4 3 3 3 2 2 2 3 2 1 0 0 0 0 0 0 0 0 0 0 0 0 0 0 0
3 3 3 3 5 6 7 7 7 7 6 5 5 5 6 7 6 5 4 4 3 2 2 2 2 3 2 1 0 0 0 0 0 0 0 0 0 0 0 0 0 0 0
4 4 4 5 5 7 7 8 8 8 7 6 6 7 7 7 5 5 5 4 3 3 2 2 3 2 2 1 0 0 0 0 0 0 0 0 0 0 0 0 0 0 0
4 4 5 6 6 7 7 8 8 8 7 7 7 7 7 6 6 5 5 4 3 3 2 2 2 2 2 2 1 1 0 0 0 0 0 0 0 0 0 0 0 0 0
4 4 5 6 7 7 8 8 9 8 7 7 6 6 6 7 7 6 5 4 3 3 2 2 2 2 2 2 2 1 1 0 0 0 0 0 0 0 0 0 0 0 0
4 4 5 6 7 8 8 8 9 8 7 6 5 5 5 5 6 5 4 3 3 2 2 2 2 1 1 1 1 1 1 1 0 0 0 0 0 0 0 0 0 0 0
5 5 5 6 7 7 8 8 9 8 7 6 4 4 4 4 4 4 3 2 2 1 1 1 1 1 1 0 0 0 0 0 0 0 0 0 0 0 0 0 0 0 0
Wind_Speed
10 9 9 10 10 7 7 6 6 5 2 1 0 0 1 1 0 3 5 2 2 3 4 3 4 4 4 4 5 4 5 4 4 4 4 5 6 5 5 4 4 4 5
10 10 9 9 9 8 7 6 6 5 4 2 1 1 1 2 1 2 3 3 2 2 4 4 4 5 4 4 3 3 3 5 5 4 4 4 4 3 2 2 3 3 2
11 11 10 10 10 9 9 8 7 6 5 3 2 2 1 2 1 1 1 3 2 2 2 2 3 4 5 4 4 4 4 4 5 4 3 3 3 5 3 2 0 1 1
11 11 11 11 10 10 10 8 7 6 5 4 3 3 2 2 1 0 1 2 1 2 1 1 2 3 4 5 5 5 5 5 4 5 3 3 3 2 4 4 2 1 2
12 12 12 11 10 10 9 9 8 6 5 4 3 3 3 2 2 3 2 1 3 3 3 2 1 2 3 3 4 4 4 4 4 4 5 5 4 3 4 5 4 3 2
12 12 11 10 8 8 8 8 9 7 6 5 4 3 2 2 3 3 3 3 3 2 2 2 1 2 3 3 4 4 5 4 4 4 4 4 4 4 4 5 5 4 3
12 12 11 10 9 8 8 8 9 8 6 6 4 3 2 2 4 4 4 2 2 2 1 2 1 2 3 4 4 4 5 5 5 4 4 4 4 4 4 4 5 6 4
12 12 12 10 9 9 8 7 8 8 6 5 4 3 2 2 3 1 2 3 3 3 2 1 2 3 4 5 4 4 5 5 4 6 5 3 4 4 4 4 4 5 5
12 12 11 10 9 8 7 7 8 7 6 5 5 4 4 3 3 3 3 4 2 3 3 3 3 4 4 5 5 4 5 5 5 5 5 4 4 4 4 4 4 4 6
12 12 11 10 9 8 7 7 8 6 5 4 4 4 5 5 5 4 4 3 4 4 4 4 5 5 5 5 5 5 6 5 5 5 6 5 4 4 4 4 4 4 5
11 11 10 9 9 9 9 8 7 6 5 4 4 2 2 3 3 4 4 5 4 4 4 5 5 5 6 6 5 6 6 6 6 6 7 6 6 5 4 4 4 4 4
8 9 10 9 8 9 9 9 8 7 7 6 5 5 4 4 4 5 4 4 4 4 5 5 5 6 6 6 6 6 7 6 6 6 7 7 7 6 5 5 6 5 5
6 6 9 9 8 7 8 9 9 8 8 7 6 6 6 5 5 5 4 4 4 4 5 5 6 6 6 6 6 6 7 7 7 7 7 7 7 6 5 5 6 5 7
6 5 7 7 7 6 6 6 6 6 6 6 6 6 6 5 5 4 4 4 4 5 5 6 6 6 6 7 7 7 7 6 6 7 7 7 7 7 7 7 6 6 6
8 7 7 8 7 6 6 6 6 5 5 5 5 5 5 5 5 5 4 4 5 7 5 5 6 6 7 8 6 5 7 5 6 6 7 8 10 10 8 8 6 5 5
7 9 9 10 9 8 8 7 7 6 6 5 5 5 4 4 5 5 5 5 5 5 5 6 7 8 8 4 3 4 6 6 7 8 7 9 10 12 14 15 13 11 8
5 7 9 10 10 10 9 8 8 7 7 7 6 6 5 6 5 6 5 5 5 5 5 6 7 7 8 9 9 9 7 7 7 8 8 10 11 9 7 9 13 14 17
4 5 7 9 10 10 10 9 9 8 8 8 8 7 6 6 6 5 5 5 4 5 5 6 7 7 9 10 10 11 9 9 9 9 10 10 10 11 8 7 7 7 9
3 4 6 9 10 11 11 11 9 9 9 9 8 8 7 6 5 5 5 5 5 5 6 7 7 8 8 9 11 10 7 8 10 10 10 10 9 11 10 8 8 8 8
1 3 5 6 8 10 10 11 11 10 10 9 8 7 6 6 5 5 5 5 5 6 7 8 7 8 8 9 11 11 7 8 8 8 8 12 11 10 10 8 8 8 8
2 1 2 3 4 7 8 9 9 9 9 7 7 7 6 6 6 6 5 6 7 7 8 8 8 8 10 10 12 13 8 8 8 7 6 5 5 7 9 9 8 9 8
7 5 2 2 1 4 6 7 7 5 4 5 6 6 6 7 7 7 6 7 7 8 9 9 10 8 8 10 11 14 15 12 8 7 7 4 3 5 8 8 10 11 9
9 8 6 4 3 0 3 5 5 4 5 5 6 6 6 6 6 6 7 8 8 9 9 8 7 6 4 5 10 12 14 15 10 8 10 9 9 8 8 14 15 11 8
11 10 10 8 6 4 2 2 3 4 5 6 6 6 6 7 8 7 8 9 9 8 7 6 5 4 4 3 2 3 5 9 10 9 10 12 14 13 13 11 10 9 10
11 10 10 8 8 7 5 3 2 2 4 5 6 7 8 9 8 9 9 9 8 8 7 6 5 6 6 3 2 2 4 4 3 4 6 8 8 7 7 8 8 8 8
10 10 10 9 9 8 7 6 4 3 4 6 7 8 8 8 9 9 9 14 15 15 16 15 12 8 9 8 9 8 8 6 3 3 8 9 9 8 8 7 7 7 7
Wind_Direction
148 146 145 141 141 143 142 144 143 135 142 138 165 36 44 343 28 110 107 75 38 18 315 349 345 329 343 346 333 339 323 309 294 298 297 286 261 236 223 225 233 237 232
147 148 155 152 156 158 157 157 155 161 175 161 158 205 252 279 263 86 125 118 68 359 336 30 336 355 336 313 328 329 316 312 322 319 313 308 303 345 278 218 223 231 242
160 159 168 167 170 171 173 176 174 173 180 181 209 250 222 257 258 78 111 89 52 333 346 343 347 346 324 340 345 334 334 323 317 305 306 313 334 339 319 328 19 174 205
167 168 175 178 180 180 181 178 170 173 174 188 231 269 279 293 331 11 76 77 289 257 271 315 342 336 319 322 329 17 339 325 317 319 315 295 311 310 316 320 327 291 227
173 174 180 185 188 186 181 173 166 170 175 193 218 249 284 322 4 18 11 341 269 232 216 198 213 310 298 323 345 327 322 315 312 320 323 322 312 267 269 294 308 304 280
176 175 182 182 188 186 180 167 163 167 174 194 218 223 261 313 322 318 302 289 279 257 190 185 136 293 303 334 322 310 301 302 311 312 307 307 306 306 301 300 305 302 293
179 178 183 183 188 192 184 172 160 164 177 193 206 211 220 256 257 253 266 275 295 307 62 49 33 297 302 295 283 285 284 286 289 290 286 296 304 306 303 301 301 301 298
182 183 186 187 188 192 184 173 155 159 175 191 190 192 207 253 269 306 349 324 305 310 349 300 262 262 267 277 288 293 286 282 281 281 282 283 283 286 291 290 297 300 297
185 185 187 185 184 183 173 163 146 157 177 190 176 184 203 233 285 320 283 269 280 296 318 321 295 280 271 266 271 271 278 283 279 278 279 270 279 285 282 283 279 282 290
188 187 182 181 173 169 153 144 143 160 177 193 199 210 191 205 217 240 271 295 294 284 281 276 282 281 276 268 260 264 267 269 266 261 265 272 271 278 285 287 282 272 274
192 184 175 167 163 158 148 149 154 165 181 201 206 231 223 235 236 233 240 248 256 268 272 270 269 271 270 268 261 260 266 267 266 267 267 263 263 266 275 282 283 281 277
188 173 162 154 159 166 163 164 169 179 186 193 193 200 212 227 242 252 250 252 256 261 268 269 270 271 273 270 271 272 274 271 270 268 268 267 266 259 257 263 270 273 273
180 172 155 156 166 172 173 174 180 189 189 187 188 198 208 221 228 239 251 258 263 266 270 271 272 273 274 272 267 264 266 266 268 269 269 268 267 265 261 262 265 273 278
169 176 155 154 164 170 169 175 187 189 189 186 191 200 207 222 231 236 241 250 259 263 265 266 269 272 274 273 268 265 265 264 265 265 266 267 264 261 260 261 256 261 267
173 176 167 159 167 173 173 180 190 188 191 189 202 206 207 214 223 232 237 243 252 265 266 270 272 271 270 268 269 266 270 277 283 279 274 270 267 260 254 260 261 269 272
194 184 179 174 177 182 186 190 192 189 180 194 211 214 212 220 226 231 237 242 246 254 260 268 272 272 274 272 255 259 283 284 280 278 276 276 271 260 245 243 245 247 254
205 192 183 181 180 185 188 193 190 188 186 193 207 213 212 220 225 237 243 248 257 263 262 264 267 269 270 262 245 238 252 265 268 270 272 275 275 282 266 248 243 244 245
221 192 184 180 181 185 188 191 191 190 195 198 206 210 213 222 223 227 237 244 249 257 262 264 267 268 270 263 245 238 244 260 262 261 260 262 265 270 269 271 263 252 248
218 193 198 198 185 187 186 185 196 194 199 204 205 209 212 218 223 232 237 242 247 255 260 264 261 262 264 256 242 232 250 258 261 260 261 259 257 254 247 248 256 260 262
240 205 211 211 184 182 181 184 195 199 204 206 203 203 204 210 222 234 241 246 249 256 263 263 259 261 265 260 240 225 245 258 263 263 260 259 257 255 235 234 246 254 258
337 283 235 222 192 176 177 188 198 204 204 202 199 196 196 202 216 226 230 238 246 254 259 265 265 260 258 258 240 223 233 251 262 269 273 274 272 253 239 236 246 252 262
359 355 351 324 234 174 176 193 207 206 202 203 205 203 200 214 221 214 223 233 242 254 256 255 257 254 247 245 238 222 222 238 253 264 272 275 275 262 251 243 247 251 255
11 6 5 358 0 13 182 204 205 199 209 210 212 214 215 218 225 228 234 238 238 246 254 255 255 255 245 236 231 221 223 231 239 258 269 279 270 265 255 246 245 246 245
14 11 10 10 8 359 322 244 218 205 212 222 224 226 229 232 233 232 237 241 245 247 251 255 264 274 270 261 217 207 220 230 239 255 268 268 259 249 252 255 242 232 236
16 14 10 5 3 358 349 336 308 251 242 245 246 248 247 245 243 239 238 240 244 247 250 261 267 271 273 250 171 252 277 286 312 308 279 271 266 256 249 245 241 235 230
15 12 6 4 0 356 351 344 337 319 286 270 264 262 259 255 251 248 245 232 232 237 230 230 236 247 248 243 244 247 246 246 245 260 265 266 265 264 262 262 256 246 240